Вернуться в каталог

ORBCOMM FM 20

АктивенСвязьLEO
NORAD 25416·PAYLOAD·🇺🇸 United States

Запущен Aug 2, 1998 с Cape Canaveral Space Force Station

Loading…

Ближайшие Пролёты (ближайшие 24 часа)

TLE

СвежийSource: Space-Track

Эпоха: Sep 14, 2026, 11:41 UTC

1 25416U 98046D   26257.48746729  .00000480  00000-0  20335-3 0  9992
2 25416  44.9931 187.9529 0002227 346.3830  13.6957 14.38170346469648

Отслеживайте ORBCOMM FM 20 в реальном времени с AllMySat

Download on the App Store